TimeEDT,TemperatureF,Dew PointF,Humidity,Sea Level PressureIn,VisibilityMPH,Wind Direction,Wind SpeedMPH,Gust SpeedMPH,PrecipitationIn,Events,Conditions,WindDirDegrees,DateUTC
12:52 AM,57.9,53.1,84,30.09,10.0,South,6.9,-,N/A,,Clear,180,2012-10-04 04:52:00
1:52 AM,57.9,53.1,84,30.09,10.0,South,5.8,-,N/A,,Mostly Cloudy,190,2012-10-04 05:52:00
2:52 AM,60.1,52.0,75,30.09,10.0,SSW,9.2,-,N/A,,Overcast,200,2012-10-04 06:52:00
3:52 AM,60.1,50.0,69,30.08,10.0,SSW,8.1,-,N/A,,Scattered Clouds,210,2012-10-04 07:52:00
4:52 AM,57.9,50.0,75,30.09,10.0,SSW,8.1,-,N/A,,Clear,200,2012-10-04 08:52:00
5:52 AM,55.9,50.0,80,30.09,10.0,SSW,6.9,-,N/A,,Clear,200,2012-10-04 09:52:00
6:52 AM,55.0,48.9,80,30.10,10.0,SSW,6.9,-,N/A,,Clear,210,2012-10-04 10:52:00
7:52 AM,55.0,48.9,80,30.11,10.0,SSW,5.8,-,N/A,,Clear,210,2012-10-04 11:52:00
8:52 AM,57.0,50.0,77,30.11,10.0,SW,10.4,-,N/A,,Clear,230,2012-10-04 12:52:00
9:52 AM,61.0,51.1,70,30.12,10.0,SW,9.2,18.4,N/A,,Clear,220,2012-10-04 13:52:00
10:52 AM,64.4,51.8,64,30.12,10.0,SW,10.4,-,N/A,,Partly Cloudy,230,2012-10-04 14:52:00
11:52 AM,64.9,52.0,63,30.13,10.0,SSW,8.1,-,N/A,,Overcast,200,2012-10-04 15:52:00
12:52 PM,66.9,52.0,59,30.13,10.0,SSW,9.2,-,N/A,,Overcast,210,2012-10-04 16:52:00
1:52 PM,70.0,51.1,51,30.10,10.0,SW,9.2,-,N/A,,Clear,220,2012-10-04 17:52:00
2:52 PM,73.9,50.0,43,30.07,10.0,SW,15.0,18.4,N/A,,Clear,230,2012-10-04 18:52:00
3:52 PM,75.0,50.0,41,30.06,10.0,SW,12.7,20.7,N/A,,Clear,230,2012-10-04 19:52:00
4:52 PM,75.0,50.0,41,30.05,10.0,SW,9.2,-,N/A,,Clear,230,2012-10-04 20:52:00
5:52 PM,75.0,48.9,40,30.05,10.0,SW,11.5,-,N/A,,Clear,220,2012-10-04 21:52:00
6:52 PM,72.0,48.9,44,30.04,10.0,SSW,5.8,-,N/A,,Clear,210,2012-10-04 22:52:00
7:52 PM,64.0,53.1,67,30.04,10.0,South,4.6,-,N/A,,Clear,180,2012-10-04 23:52:00
8:52 PM,64.9,52.0,63,30.04,10.0,South,6.9,-,N/A,,Clear,190,2012-10-05 00:52:00
9:52 PM,66.9,53.1,61,30.03,10.0,SSW,8.1,-,N/A,,Clear,210,2012-10-05 01:52:00
10:52 PM,68.0,53.1,59,30.04,10.0,SW,10.4,19.6,N/A,,Mostly Cloudy,220,2012-10-05 02:52:00
11:52 PM,69.1,53.1,57,30.03,10.0,SW,12.7,18.4,N/A,,Mostly Cloudy,230,2012-10-05 03:52:00